Weather History for West Palm Beach, FL

Change the Weather History Date:

Saturday, October 15, 2011

  Actual Average Record
Temperature  
Mean Temperature 79 °F 79 °F  
Max Temperature 84 °F 85 °F 93 °F (2009)
Min Temperature 74 °F 72 °F 54 °F (1977)
Degree Days  
Heating Degree Days 0 0  
Month to date heating degree days 0 0  
Since 1 July heating degree days 0 0  
Cooling Degree Days 14 14  
Month to date cooling degree days 237 221  
Year to date cooling degree days 4129 3429  
Growing Degree Days 30 (Base 50)    
Moisture  
Dew Point 64 °F    
Average Humidity 65    
Maximum Humidity 82    
Minimum Humidity 47    
Precipitation  
Precipitation 0.00 in 0.14 in 9.70 in (1910)
Month to date precipitation 0.15 2.76  
Year to date precipitation 35.92 51.83  
Snow  
Snow 0.00 in - - ()
Month to date snowfall 0.0  
Since 1 July snowfall 0.0  
Since 1 September snowfall 0.0  
Snow Depth 0.00 in    
Sea Level Pressure  
Sea Level Pressure 29.99 in    
Wind  
Wind Speed 11 mph (NE)    
Max Wind Speed 20 mph    
Max Gust Speed 26 mph    
Visibility 10 miles    
Events      
T = Trace of Precipitation, MM = Missing Value Source: NWS Daily Summary

Daily Weather History Graph

Daily Weather History Graph

Search for Another Location

Airport:

Trip Planner

Search our weather history database for the weather conditions in past years. The results will help you decide how hot, cold, wet, or windy it might be!

Date:

Astronomy

Oct. 15, 2011 Rise Set
Actual Time 7:19 AM EDT 6:52 PM EDT
Civil Twilight 6:56 AM EDT 7:15 PM EDT
Nautical Twilight 6:29 AM EDT 7:42 PM EDT
Astronomical Twilight 6:02 AM EDT 8:09 PM EDT
Moon 9:10 PM EDT (10/15) 10:20 AM EDT (10/15)
Length of Visible Light 12h 19m
Length of Day
11h 32m
Waning Gibbous, 89% of the Moon is Illuminated
Oct 15
Waning Gibbous
Oct 19
Last Quarter
Oct 26
New
Nov 2
First Quarter
Nov 10
Full

Hourly Weather History & Observations

Time (EDT) Temp. Heat Index Dew Point Humidity Pressure Visibility Wind Dir Wind Speed Gust Speed Precip Events Conditions
12:53 AM 78.1 °F - 66.9 °F 68% 29.95 in 10.0 mi North 3.5 mph - N/A   Mostly Cloudy
1:53 AM 75.9 °F - 68.0 °F 76% 29.95 in 10.0 mi Calm Calm - N/A   Overcast
2:53 AM 75.0 °F - 69.1 °F 82% 29.95 in 10.0 mi Calm Calm - N/A   Overcast
3:53 AM 75.0 °F - 69.1 °F 82% 29.95 in 10.0 mi NNW 3.5 mph - N/A   Overcast
4:53 AM 78.1 °F - 66.9 °F 68% 29.94 in 10.0 mi NNE 4.6 mph - N/A   Mostly Cloudy
5:53 AM 79.0 °F - 66.0 °F 64% 29.93 in 10.0 mi NNE 6.9 mph - N/A   Mostly Cloudy
6:53 AM 79.0 °F - 64.0 °F 60% 29.95 in 10.0 mi NE 10.4 mph - N/A   Mostly Cloudy
7:53 AM 79.0 °F - 62.1 °F 56% 29.95 in 10.0 mi NE 10.4 mph - N/A   Mostly Cloudy
8:53 AM 80.1 °F 80.9 °F 60.1 °F 50% 29.98 in 10.0 mi NE 13.8 mph 19.6 mph N/A   Mostly Cloudy
9:53 AM 81.0 °F 81.7 °F 61.0 °F 50% 30.00 in 10.0 mi ENE 16.1 mph - N/A   Mostly Cloudy
10:53 AM 82.0 °F 83.0 °F 62.1 °F 51% 30.01 in 10.0 mi ENE 13.8 mph 23.0 mph N/A   Mostly Cloudy
11:53 AM 82.9 °F 83.3 °F 61.0 °F 47% 30.02 in 10.0 mi NE 16.1 mph 23.0 mph N/A   Mostly Cloudy
12:53 PM 84.0 °F 84.5 °F 62.1 °F 47% 30.01 in 10.0 mi NE 16.1 mph 23.0 mph N/A   Mostly Cloudy
1:53 PM 82.9 °F 84.0 °F 63.0 °F 51% 30.00 in 10.0 mi ENE 15.0 mph 20.7 mph N/A   Mostly Cloudy
2:53 PM 82.0 °F 83.1 °F 63.0 °F 52% 29.99 in 10.0 mi ENE 15.0 mph 24.2 mph N/A   Overcast
3:53 PM 82.0 °F 83.1 °F 63.0 °F 52% 29.99 in 10.0 mi ENE 15.0 mph 21.9 mph N/A   Overcast
4:53 PM 81.0 °F 82.2 °F 63.0 °F 54% 29.99 in 10.0 mi ENE 11.5 mph - N/A   Overcast
5:53 PM 81.0 °F 82.2 °F 63.0 °F 54% 30.00 in 10.0 mi NE 12.7 mph - N/A   Overcast
6:53 PM 80.1 °F 81.7 °F 64.0 °F 58% 30.01 in 10.0 mi ENE 15.0 mph - N/A   Overcast
7:53 PM 80.1 °F 81.7 °F 64.0 °F 58% 30.01 in 10.0 mi ENE 12.7 mph - N/A   Overcast
8:53 PM 80.1 °F 81.9 °F 64.9 °F 60% 30.02 in 10.0 mi ENE 12.7 mph - N/A   Overcast
9:53 PM 80.1 °F 81.9 °F 64.9 °F 60% 30.03 in 10.0 mi ENE 11.5 mph - N/A   Overcast
10:53 PM 80.1 °F 82.1 °F 66.0 °F 62% 30.04 in 10.0 mi East 10.4 mph - N/A   Overcast
11:53 PM 80.1 °F 82.1 °F 66.0 °F 62% 30.04 in 10.0 mi East 11.5 mph - N/A   Overcast